Regional Weather Roundup
Issued by NWS Sterling, VA

Home | Current Version | Previous Version | Text Only | Print | Product List | Glossary On
Versions: 1 2 3 4 5 6 7 8 9 10 11 12 13 14 15 16 17 18 19 20 21 22 23 24 25 26 27
000
ASUS41 KLWX 232010
RWRLWX

REGIONAL WEATHER ROUNDUP
NATIONAL WEATHER SERVICE BALTIMORE MD/WASHINGTON DC
400 PM EDT THU OCT 23 2014

Note: "FAIR" indicates few or no clouds below 12,000 feet
with no significant weather and/or obstructions to visibility.
 TC=TEMPERATURE CELSIUS

 * =Non NWS site. Station does not report precipitation (e.g. rain,
    snow, etc.), thunder, or fog.

DCZ001-MDZ009-015-VAZ040>042-051-053>054-232100-
WASHINGTON METRO

CITY           SKY/WX    TMP DP  RH WIND       PRES   REMARKS
WASHINGTON NAT CLOUDY    65  44  46 NW20G30   29.87S
DULLES         PTSUNNY   61  44  53 NW20G32   29.88S
ANDREWS AFB    CLOUDY    61  46  56 NW21      29.85R
FT BELVOIR     CLOUDY    63  45  51 NW23G29   29.88R
QUANTICO       PTSUNNY   64  43  46 N16G36    29.88R
COLLEGE PARK*  CLOUDY    63  45  51 NW10G20   29.85S
LEESBURG*      CLOUDY    63  46  55 N22G31    29.90S
GAITHERSBURG*  CLOUDY    59  45  58 W16G28    29.90S

$$

MDZ006>007-011-014-232100-
BALTIMORE METRO

CITY           SKY/WX    TMP DP  RH WIND       PRES   REMARKS
BWI AIRPORT    PTSUNNY   62  45  53 NW9G23    29.82S
MD SCIENCE CTR   N/A     63  44  50 MISG      29.83R
MARTIN STATE   PTSUNNY   63  50  63 W18G24    29.83R
ANNAPOLIS      CLOUDY    62  47  57 NW14G21   29.82S
FORT MEADE*    CLOUDY    61  45  55 NW7       29.86S

$$

MDZ012-015-019>023-232100-
MARYLAND EASTERN SHORE

CITY           SKY/WX    TMP DP  RH WIND       PRES   REMARKS
OCEAN CITY     CLOUDY    57  47  69 NW9       29.77S
SALISBURY      CLOUDY    62  46  55 NW14G22   29.79R
BAY BRIDGE AP*   N/A     61  46  59 NW17G24   29.81F
CAMBRIDGE*     CLOUDY    61  46  59 NW13      29.80S
EASTON*        CLOUDY    61  50  67 N13G21    29.84S

$$

MDZ017>025-232100-
SOUTHERN MARYLAND

CITY           SKY/WX    TMP DP  RH WIND       PRES   REMARKS
PATUXENT RIVER PTSUNNY   63  45  51 NW25G33   29.82R
ST INIGOES     MOSUNNY   64  43  46 NW17G26   29.81S
LEONARDTOWN*   CLOUDY    63  43  48 NW13G23   29.84S

$$

MDZ003>005-232100-
NORTH CENTRAL MARYLAND

CITY           SKY/WX    TMP DP  RH WIND       PRES   REMARKS
FREDERICK*     MOSUNNY   66  45  45 NW18G24   29.91R
HAGERSTOWN APT CLOUDY    63  43  48 N14G22    29.90S
WESTMINSTER*   CLOUDY    61  46  59 NW14G21   29.86R

$$

MDZ501>502-232100-
WESTERN MARYLAND

CITY           SKY/WX    TMP DP  RH WIND       PRES   REMARKS
OAKLAND*       CLOUDY    46 N/A N/A W8G23     30.03R
CUMBERLAND*    MOSUNNY   63  41  45 NW17G25   29.99S

$$

VAZ025>031-232100-
SHENANDOAH VALLEY

CITY           SKY/WX    TMP DP  RH WIND       PRES   REMARKS
WINCHESTER*    CLOUDY    63  37  39 NW17G26   29.92F
FRONT ROYAL*   FAIR      61  43  51 NW7G20    29.92S
LURAY*         CLOUDY    63  45  51 NW10      29.95F
NEW MARKET*    FAIR      61  43  52 N10G16    29.96S
STAUNTON*      SUNNY     62  39  42 NW14G23   29.97F
WAYNESBORO*    FAIR      61  41  46 NW12G17   29.95S

$$

WVZ021-048>050-054>055-232100-
EASTERN WEST VIRGINIA PANHANDLE

CITY           SKY/WX    TMP DP  RH WIND       PRES   REMARKS
MARTINSBURG    CLOUDY    64  40  41 NW17G28   29.91S
PETERSBURG*    SUNNY     58  39  49 W12G18    30.01F

$$

VAZ036>039-050-232100-
CENTRAL FOOTHILLS

CITY           SKY/WX    TMP DP  RH WIND       PRES   REMARKS
CHARLOTTESVILL SUNNY     65  42  43 NW12G23   29.91S
CULPEPER*      MOSUNNY   64  43  45 NW12G23   29.91S
ORANGE*        SUNNY     64  45  48 NW12G21   29.91S
GORDONSVILLE*  FAIR      66  44  44 CALM      29.89S
WARRENTON*     FAIR      65  50  57 NW17G24   29.90R

$$

VAZ055>057-232100-
NORTH AND CENTRAL PIEDMONT

CITY           SKY/WX    TMP DP  RH WIND       PRES   REMARKS
FREDERICKSBRG* MOSUNNY   65  45  47 NW17G24   29.87S
STAFFORD*      PTSUNNY   65  43  46 NW22G31   29.92S

$$

NCZ024-NYZ072-PAZ021-071-VAZ022-071-232100-
OTHER REGIONAL OBSERVATIONS

CITY           SKY/WX    TMP DP  RH WIND       PRES   REMARKS
NEW YORK CITY  CLOUDY    51  47  86 VRB5      29.72S
PHILADELPHIA   CLOUDY    57  44  62 NW23G29   29.77S
PITTSBURGH     MOSUNNY   60  42  51 NW14      30.06F
ROANOKE        SUNNY     62  40  44 NW13G25   30.02R
RICHMOND       MOSUNNY   70  45  40 N12G23    29.86S
RALEIGH        SUNNY     69  44  40 W8        29.92F

$$

ANZ530>537-232100-
MARINE OBSERVATIONS

STATION/POSITION TIME  TEMP    WIND        PRES
                       AIR SEA DIR/SP/G
                 (UTC) (F)     (DEG/KT/KT) (MB)
THOMAS PT LIGHT  2000   61 62  310/ 15/ 18 1010.5R
BALT KEY BRIDGE  2000   62     300/ 22/ 25 1009.3F
COVE POINT       2000   62     340/ 24/ 30 1009.6R
LEWISETTA        2000   63 60  330/ 20/ 29 1009.6S
SOLOMONS ISLAND  2000      64                N/A
PINEY POINT      2000          340/ 26/ 32   N/A

$$




USA.gov is the U.S. government's official web portal to all federal, state and local government web resources and services.